TimeCDT,TemperatureF,Dew PointF,Humidity,Sea Level PressureIn,VisibilityMPH,Wind Direction,Wind SpeedMPH,Gust SpeedMPH,PrecipitationIn,Events,Conditions,WindDirDegrees,DateUTC
12:15 AM,59.0,53.6,82,30.24,10.0,NE,4.6,-,N/A,,Scattered Clouds,40,2013-08-19 05:15:00
12:35 AM,60.8,53.6,77,30.24,10.0,NE,5.8,-,N/A,,Mostly Cloudy,50,2013-08-19 05:35:00
12:55 AM,60.8,51.8,72,30.24,10.0,East,5.8,-,N/A,,Partly Cloudy,80,2013-08-19 05:55:00
1:15 AM,60.8,51.8,72,30.24,10.0,ESE,3.5,-,N/A,,Clear,110,2013-08-19 06:15:00
1:35 AM,60.8,51.8,72,30.24,10.0,Calm,Calm,-,N/A,,Partly Cloudy,0,2013-08-19 06:35:00
1:55 AM,59.0,51.8,77,30.24,10.0,Calm,Calm,-,N/A,,Partly Cloudy,0,2013-08-19 06:55:00
2:15 AM,57.2,51.8,82,30.23,10.0,Calm,Calm,-,N/A,,Clear,0,2013-08-19 07:15:00
2:35 AM,57.2,51.8,82,30.23,10.0,NNW,4.6,-,N/A,,Clear,330,2013-08-19 07:35:00
2:55 AM,57.2,51.8,82,30.23,10.0,North,8.1,-,N/A,,Clear,350,2013-08-19 07:55:00
3:15 AM,57.2,51.8,82,30.23,10.0,North,8.1,-,N/A,,Clear,350,2013-08-19 08:15:00
3:35 AM,57.2,51.8,82,30.22,10.0,NNW,6.9,-,N/A,,Clear,340,2013-08-19 08:35:00
3:55 AM,57.2,51.8,82,30.21,10.0,NNW,6.9,-,N/A,,Clear,330,2013-08-19 08:55:00
4:15 AM,59.0,53.6,82,30.21,10.0,NNE,5.8,-,N/A,,Clear,20,2013-08-19 09:15:00
4:35 AM,57.2,51.8,82,30.22,10.0,North,4.6,-,N/A,,Clear,10,2013-08-19 09:35:00
4:55 AM,55.4,51.8,88,30.21,10.0,North,5.8,-,N/A,,Clear,360,2013-08-19 09:55:00
5:15 AM,55.4,51.8,88,30.21,10.0,North,5.8,-,N/A,,Clear,350,2013-08-19 10:15:00
5:35 AM,53.6,51.8,94,30.21,10.0,North,6.9,-,N/A,,Clear,360,2013-08-19 10:35:00
5:55 AM,53.6,50.0,88,30.21,10.0,NW,5.8,-,N/A,,Clear,320,2013-08-19 10:55:00
6:15 AM,53.6,50.0,88,30.21,10.0,North,5.8,-,N/A,,Clear,350,2013-08-19 11:15:00
6:35 AM,53.6,48.2,82,30.21,10.0,NNE,6.9,-,N/A,,Clear,20,2013-08-19 11:35:00
6:55 AM,53.6,50.0,88,30.22,10.0,North,6.9,-,N/A,,Clear,360,2013-08-19 11:55:00
7:15 AM,53.6,48.2,82,30.22,10.0,North,4.6,-,N/A,,Clear,350,2013-08-19 12:15:00
7:35 AM,51.8,48.2,88,30.22,10.0,North,8.1,-,N/A,,Clear,10,2013-08-19 12:35:00
7:55 AM,53.6,50.0,88,30.22,10.0,NNW,4.6,-,N/A,,Clear,340,2013-08-19 12:55:00
8:15 AM,55.4,51.8,88,30.22,10.0,North,6.9,-,N/A,,Clear,350,2013-08-19 13:15:00
8:35 AM,60.8,53.6,77,30.23,10.0,North,4.6,-,N/A,,Clear,350,2013-08-19 13:35:00
8:55 AM,64.4,55.4,73,30.24,10.0,North,4.6,-,N/A,,Clear,350,2013-08-19 13:55:00
9:15 AM,69.8,55.4,60,30.24,10.0,North,3.5,-,N/A,,Clear,360,2013-08-19 14:15:00
9:35 AM,71.6,53.6,53,30.25,10.0,ENE,5.8,-,N/A,,Clear,70,2013-08-19 14:35:00
9:55 AM,73.4,55.4,53,30.25,10.0,ESE,8.1,-,N/A,,Clear,120,2013-08-19 14:55:00
10:15 AM,75.2,55.4,50,30.25,10.0,SE,6.9,-,N/A,,Clear,140,2013-08-19 15:15:00
10:35 AM,75.2,55.4,50,30.25,10.0,SSE,5.8,-,N/A,,Clear,160,2013-08-19 15:35:00
10:55 AM,78.8,55.4,44,30.25,10.0,South,6.9,-,N/A,,Clear,170,2013-08-19 15:55:00
11:15 AM,78.8,55.4,44,30.26,10.0,South,5.8,-,N/A,,Clear,170,2013-08-19 16:15:00
11:35 AM,80.6,53.6,39,30.25,10.0,South,8.1,-,N/A,,Clear,190,2013-08-19 16:35:00
11:55 AM,82.4,53.6,37,30.25,10.0,SSE,6.9,-,N/A,,Clear,160,2013-08-19 16:55:00
12:15 PM,82.4,53.6,37,30.25,10.0,SE,5.8,-,N/A,,Clear,140,2013-08-19 17:15:00
12:35 PM,84.2,53.6,35,30.25,10.0,SE,8.1,-,N/A,,Clear,130,2013-08-19 17:35:00
12:55 PM,84.2,53.6,35,30.24,10.0,ESE,4.6,-,N/A,,Clear,110,2013-08-19 17:55:00
1:15 PM,86.0,53.6,33,30.24,10.0,ESE,9.2,-,N/A,,Partly Cloudy,120,2013-08-19 18:15:00
1:35 PM,87.8,48.2,25,30.23,10.0,ESE,13.8,18.4,N/A,,Partly Cloudy,110,2013-08-19 18:35:00
1:55 PM,87.8,46.4,24,30.22,10.0,ESE,8.1,17.3,N/A,,Clear,110,2013-08-19 18:55:00
2:15 PM,86.0,46.4,25,30.22,10.0,SSE,3.5,16.1,N/A,,Partly Cloudy,160,2013-08-19 19:15:00
2:35 PM,87.8,48.2,25,30.21,10.0,SSE,6.9,29.9,N/A,,Mostly Cloudy,150,2013-08-19 19:35:00
2:55 PM,87.8,46.4,24,30.21,10.0,SE,11.5,17.3,N/A,,Partly Cloudy,140,2013-08-19 19:55:00
3:15 PM,89.6,46.4,22,30.20,10.0,ESE,13.8,23.0,N/A,,Clear,120,2013-08-19 20:15:00
3:35 PM,87.8,44.6,22,30.20,10.0,SSE,5.8,-,N/A,,Partly Cloudy,160,2013-08-19 20:35:00
3:55 PM,87.8,44.6,22,30.19,10.0,SE,11.5,20.7,N/A,,Partly Cloudy,130,2013-08-19 20:55:00
4:15 PM,87.8,44.6,22,30.18,10.0,ESE,6.9,-,N/A,,Mostly Cloudy,120,2013-08-19 21:15:00
4:35 PM,89.6,44.6,21,30.17,10.0,SSE,8.1,-,N/A,,Partly Cloudy,160,2013-08-19 21:35:00
4:55 PM,87.8,44.6,22,30.17,10.0,SSE,9.2,-,N/A,,Clear,150,2013-08-19 21:55:00
5:15 PM,87.8,42.8,21,30.17,10.0,SSE,4.6,-,N/A,,Partly Cloudy,160,2013-08-19 22:15:00
5:35 PM,89.6,42.8,20,30.16,10.0,SSE,10.4,-,N/A,,Scattered Clouds,160,2013-08-19 22:35:00
5:55 PM,87.8,42.8,21,30.16,10.0,SE,9.2,-,N/A,,Scattered Clouds,140,2013-08-19 22:55:00
6:15 PM,87.8,39.2,18,30.16,10.0,ESE,9.2,20.7,N/A,,Partly Cloudy,120,2013-08-19 23:15:00
6:35 PM,86.0,39.2,19,30.16,10.0,SE,11.5,-,N/A,,Clear,130,2013-08-19 23:35:00
6:55 PM,86.0,39.2,19,30.16,10.0,South,10.4,17.3,N/A,,Partly Cloudy,170,2013-08-19 23:55:00
7:15 PM,86.0,42.8,22,30.15,10.0,SE,13.8,17.3,N/A,,Mostly Cloudy,130,2013-08-20 00:15:00
7:35 PM,84.2,42.8,23,30.15,10.0,ESE,13.8,18.4,N/A,,Mostly Cloudy,120,2013-08-20 00:35:00
7:55 PM,84.2,42.8,23,30.15,10.0,SE,11.5,-,N/A,,Partly Cloudy,130,2013-08-20 00:55:00
8:15 PM,82.4,41.0,23,30.16,10.0,SE,10.4,-,N/A,,Clear,140,2013-08-20 01:15:00
8:35 PM,80.6,39.2,23,30.16,10.0,ESE,9.2,-,N/A,,Clear,120,2013-08-20 01:35:00
8:55 PM,78.8,39.2,24,30.16,10.0,ESE,8.1,-,N/A,,Clear,120,2013-08-20 01:55:00
9:15 PM,73.4,39.2,29,30.16,10.0,ESE,6.9,-,N/A,,Clear,110,2013-08-20 02:15:00
9:35 PM,71.6,39.2,31,30.16,10.0,ESE,5.8,-,N/A,,Clear,110,2013-08-20 02:35:00
9:55 PM,69.8,39.2,33,30.17,10.0,East,6.9,-,N/A,,Clear,90,2013-08-20 02:55:00
10:15 PM,68.0,39.2,35,30.18,10.0,East,8.1,-,N/A,,Clear,90,2013-08-20 03:15:00
10:35 PM,66.2,39.2,37,30.18,10.0,East,5.8,-,N/A,,Clear,90,2013-08-20 03:35:00
10:55 PM,68.0,42.8,40,30.18,10.0,East,5.8,-,N/A,,Clear,100,2013-08-20 03:55:00
11:15 PM,64.4,41.0,42,30.19,10.0,Calm,Calm,-,N/A,,Clear,0,2013-08-20 04:15:00
11:35 PM,69.8,42.8,38,30.19,10.0,East,5.8,-,N/A,,Clear,100,2013-08-20 04:35:00
11:55 PM,66.2,42.8,43,30.19,10.0,Calm,Calm,-,N/A,,Clear,0,2013-08-20 04:55:00